Showing default

LEMUR-2 MARIO-SOUSA, 67365

Orbit data source: Space-Track

LEMUR-2 MARIO-SOUSA, 67365 is a payload satellite owned by Spire/Lux (US) in SSO that was launched on Sun, 11 Jan 2026 UTC via an FALCON 9 launch vehicle from the Air Force Western Test Range (AFWTR). Payload-class satellites include a variety of spacecraft equipped with specific instruments for various scientific and technological missions. These include communications satellites like Starlink; space stations such as the ISS; scientific satellites like the Hubble; Earth observation satellites from companies like Planet Labs, Umbra, and HawkEye 360; GPS; miniature CubeSats for education and research; and military/defense satellites.

Loading next visibility...
Identifier
67365, 2026-004C
Orbit
SSO
Country
Flag of USUS
Related business
Manufacturer
Spire/Glasgow
Mission
Operational spacecraft
Bus & Motor
CUBESAT 3U, Unknown motor
Mass
4.6 kg wet, 4.6 kg dry
Launch date (UTC)
2026-01-11 (3 months ago)
Launch vehicle
FALCON 9
Launch site
Air Force Western Test Range (AFWTR)
Object type
Payload
Rocket body
Debris
Shape & HBR
Unknown shape, 0.2 m
Radar Cross Section
RCS unknown

Expand to show TLE details & history
Last TLE update: 5 hours ago

TLE from 5 hours ago
0 LEMUR-2 MARIO-SOUSA
1 67365U 26004C   26095.57017295  .00006521  00000-0  71692-3 0  9999
2 67365  97.8002  95.2766 0009187  31.3523 328.8239 14.87921196 12491
Epoch: 2026-04-05T13:41Z
TLE epoch observation values (Epoch: 2026-04-05T13:41:02.942Z)
Latitude
-0.00011°
Longitude
56.14066°
Altitude
601.979 km
Speed
7.562 km/s
True Right ascension
06h 21m 06s
True Declination
0° 00' 00"
Sunlit
Object was in daylight at epoch
Visualization orbit readout
Latitude
Unknown
Longitude
Unknown
Altitude
Unknown
Speed
Unknown
Apparent Right ascension
Unknown
Apparent Declination
Unknown
Sunlit
N/A
Visualization observer readout
Local Sidereal Time
01:00:39
Azimuth
Unknown
Elevation
Unknown
Doppler factor
Unknown
Orbital elements
Apogee altitude
607.87 km
Perigee altitude
595.045 km
Semi-major axis
6,979.595 km
Eccentricity
0.00092
Inclination
97.8002°
RAAN
95.2766°
Arg. of periapsis
31.3523°
True anomaly
328.76935°
Mean anomaly
328.8239°
Eccentric anomaly
328.79663°
Mean motion
3.72218 °/min
Orbital period
96.72 mins
BSTAR
0.00071692
Loading maneuver chart data...
Computing Atmospheric mass density...
Loading historical data...
Loading historical data...
Loading historical data...
Loading historical data...
Loading historical data...
Loading historical data...
Loading historical data...

Documentation

Showing up to 5 results
|